| time (UTC) | temp C | wind direction | speed KPH | gust KPH | rain 1hr cm | rain 24hr cm | rain mn cm | humidity % | barometer mb |
| 20260507063036 | 13 | 128 | 0.0 | 0.0 | 0.00 | 0.00 | 0.00 | 76 | 1025.9 |
| 20260507062532 | 13 | 91 | 0.0 | 0.0 | 0.00 | 0.00 | 0.00 | 76 | 1025.8 |
| 20260507062030 | 13 | 95 | 0.0 | 1.6 | 0.00 | 0.00 | 0.00 | 75 | 1025.8 |
| 20260507061528 | 14 | 108 | 0.0 | 1.6 | 0.00 | 0.00 | 0.00 | 77 | 1026.1 |
| 20260507061026 | 14 | 142 | 0.0 | 0.0 | 0.00 | 0.00 | 0.00 | 78 | 1025.7 |
| 20260507060523 | 14 | 98 | 0.0 | 0.0 | 0.00 | 0.00 | 0.00 | 77 | 1025.8 |
| 20260507060020 | 14 | 85 | 0.0 | 0.0 | 0.00 | 0.00 | 0.00 | 77 | 1025.8 |
| 20260507055520 | 14 | 91 | 0.0 | 0.0 | 0.00 | 0.00 | 0.00 | 77 | 1025.7 |
| 20260507055016 | 14 | 99 | 0.0 | 0.0 | 0.00 | 0.00 | 0.00 | 76 | 1025.7 |
| 20260507054512 | 14 | 109 | 0.0 | 0.0 | 0.00 | 0.00 | 0.00 | 77 | 1025.4 |
| 20260507054010 | 15 | 94 | 0.0 | 1.6 | 0.00 | 0.00 | 0.00 | 76 | 1025.7 |
| 20260507053508 | 15 | 109 | 0.0 | 0.0 | 0.00 | 0.00 | 0.00 | 77 | 1025.6 |
| 20260507053006 | 15 | 68 | 0.0 | 0.0 | 0.00 | 0.00 | 0.00 | 76 | 1025.6 |
| 20260507052503 | 15 | 53 | 0.0 | 0.0 | 0.00 | 0.00 | 0.00 | 76 | 1025.8 |
| 20260507051959 | 15 | 103 | 0.0 | 0.0 | 0.00 | 0.00 | 0.00 | 76 | 1025.6 |
| 20260507051457 | 15 | 69 | 0.0 | 0.0 | 0.00 | 0.00 | 0.00 | 76 | 1025.6 |
| 20260507050954 | 15 | 83 | 0.0 | 0.0 | 0.00 | 0.00 | 0.00 | 75 | 1025.8 |
| 20260507050450 | 15 | 74 | 0.0 | 0.0 | 0.00 | 0.00 | 0.00 | 75 | 1025.8 |
| 20260507045948 | 15 | 68 | 0.0 | 0.0 | 0.00 | 0.00 | 0.00 | 75 | 1025.4 |
| 20260507045444 | 15 | 122 | 0.0 | 0.0 | 0.00 | 0.00 | 0.00 | 75 | 1025.8 |
| 20260507044941 | 15 | 106 | 0.0 | 0.0 | 0.00 | 0.00 | 0.00 | 75 | 1025.7 |
| 20260507044438 | 15 | 88 | 0.0 | 0.0 | 0.00 | 0.00 | 0.00 | 75 | 1025.6 |
| 20260507043934 | 15 | 73 | 0.0 | 0.0 | 0.00 | 0.00 | 0.00 | 75 | 1025.4 |
| 20260507043430 | 15 | 105 | 0.0 | 0.0 | 0.00 | 0.00 | 0.00 | 75 | 1025.4 |
| 20260507042927 | 15 | 101 | 0.0 | 1.6 | 0.00 | 0.00 | 0.00 | 75 | 1025.4 |
| 20260507042424 | 16 | 102 | 0.0 | 0.0 | 0.00 | 0.00 | 0.00 | 75 | 1025.6 |
| 20260507041919 | 16 | 81 | 0.0 | 0.0 | 0.00 | 0.00 | 0.00 | 75 | 1025.6 |
| 20260507041416 | 16 | 102 | 0.0 | 0.0 | 0.00 | 0.00 | 0.00 | 75 | 1025.4 |
| 20260507040914 | 16 | 90 | 0.0 | 0.0 | 0.00 | 0.00 | 0.00 | 75 | 1025.3 |
| 20260507040409 | 16 | 63 | 0.0 | 0.0 | 0.00 | 0.00 | 0.00 | 75 | 1025.1 |
| 20260507035905 | 16 | 114 | 0.0 | 0.0 | 0.00 | 0.00 | 0.00 | 75 | 1025.0 |
| 20260507035401 | 16 | 116 | 0.0 | 0.0 | 0.00 | 0.00 | 0.00 | 75 | 1025.2 |
| 20260507034859 | 16 | 94 | 0.0 | 0.0 | 0.00 | 0.00 | 0.00 | 75 | 1025.1 |
| 20260507034355 | 16 | 98 | 0.0 | 0.0 | 0.00 | 0.00 | 0.00 | 75 | 1024.9 |
| 20260507033853 | 16 | 107 | 0.0 | 0.0 | 0.00 | 0.00 | 0.00 | 75 | 1024.8 |
| 20260507033351 | 16 | 106 | 0.0 | 0.0 | 0.00 | 0.00 | 0.00 | 74 | 1024.6 |
| 20260507032848 | 16 | 103 | 0.0 | 0.0 | 0.00 | 0.00 | 0.00 | 74 | 1024.7 |
| 20260507032345 | 16 | 93 | 0.0 | 0.0 | 0.00 | 0.00 | 0.00 | 74 | 1024.5 |
| 20260507031841 | 16 | 102 | 0.0 | 0.0 | 0.00 | 0.00 | 0.00 | 73 | 1024.4 |
| 20260507031338 | 17 | 95 | 0.0 | 0.0 | 0.00 | 0.00 | 0.00 | 72 | 1024.4 |
| 20260507030834 | 17 | 85 | 0.0 | 0.0 | 0.00 | 0.00 | 0.00 | 72 | 1024.4 |
| 20260507030332 | 17 | 108 | 0.0 | 0.0 | 0.00 | 0.00 | 0.00 | 71 | 1024.1 |
| 20260507025828 | 17 | 114 | 0.0 | 0.0 | 0.00 | 0.00 | 0.00 | 71 | 1024.1 |
| 20260507025326 | 17 | 101 | 0.0 | 0.0 | 0.00 | 0.00 | 0.00 | 70 | 1024.3 |
| 20260507024824 | 18 | 89 | 0.0 | 0.0 | 0.00 | 0.00 | 0.00 | 70 | 1024.0 |
| 20260507024321 | 18 | 117 | 0.0 | 0.0 | 0.00 | 0.00 | 0.00 | 70 | 1024.2 |
| 20260507023816 | 18 | 106 | 0.0 | 0.0 | 0.00 | 0.00 | 0.00 | 70 | 1024.3 |
| 20260507023313 | 18 | 97 | 0.0 | 1.6 | 0.00 | 0.00 | 0.00 | 69 | 1024.0 |
| 20260507022810 | 18 | 80 | 0.0 | 1.6 | 0.00 | 0.00 | 0.00 | 69 | 1023.8 |
| 20260507022307 | 18 | 99 | 0.0 | 0.0 | 0.00 | 0.00 | 0.00 | 68 | 1023.9 |
| 20260507021803 | 18 | 68 | 0.0 | 1.6 | 0.00 | 0.00 | 0.00 | 68 | 1023.9 |
| 20260507021259 | 18 | 71 | 0.0 | 0.0 | 0.00 | 0.00 | 0.00 | 68 | 1024.1 |
| 20260507020757 | 19 | 91 | 0.0 | 0.0 | 0.00 | 0.00 | 0.00 | 69 | 1024.0 |
| 20260507020253 | 19 | 63 | 0.0 | 0.0 | 0.00 | 0.00 | 0.00 | 68 | 1024.2 |
| 20260507015751 | 19 | 84 | 0.0 | 0.0 | 0.00 | 0.00 | 0.00 | 68 | 1024.0 |
| 20260507015248 | 19 | 89 | 0.0 | 0.0 | 0.00 | 0.00 | 0.00 | 68 | 1024.1 |
| 20260507014745 | 19 | 117 | 0.0 | 0.0 | 0.00 | 0.00 | 0.00 | 68 | 1024.2 |
| 20260507014241 | 19 | 113 | 0.0 | 0.0 | 0.00 | 0.00 | 0.00 | 68 | 1024.0 |
| 20260507013738 | 20 | 96 | 0.0 | 0.0 | 0.00 | 0.00 | 0.00 | 67 | 1024.2 |
| 20260507013235 | 20 | 73 | 0.0 | 1.6 | 0.00 | 0.00 | 0.00 | 65 | 1024.1 |
| 20260507012732 | 20 | 59 | 1.6 | 3.2 | 0.00 | 0.00 | 0.00 | 65 | 1024.0 |
| 20260507012228 | 20 | 50 | 1.6 | 3.2 | 0.00 | 0.00 | 0.00 | 65 | 1023.8 |
| 20260507011726 | 20 | 148 | 0.0 | 0.0 | 0.00 | 0.00 | 0.00 | 65 | 1023.9 |
| 20260507011222 | 20 | 70 | 1.6 | 1.6 | 0.00 | 0.00 | 0.00 | 65 | 1023.9 |
| 20260507010721 | 20 | 103 | 0.0 | 0.0 | 0.00 | 0.00 | 0.00 | 64 | 1023.7 |
| 20260507010218 | 20 | 112 | 0.0 | 0.0 | 0.00 | 0.00 | 0.00 | 64 | 1023.7 |
| 20260507005716 | 21 | 201 | 0.0 | 1.6 | 0.00 | 0.00 | 0.00 | 63 | 1024.0 |
| 20260507005211 | 21 | 139 | 0.0 | 0.0 | 0.00 | 0.00 | 0.00 | 63 | 1023.8 |
| 20260507004708 | 21 | 192 | 1.6 | 3.2 | 0.00 | 0.00 | 0.00 | 63 | 1023.9 |
| 20260507004206 | 21 | 198 | 1.6 | 3.2 | 0.00 | 0.00 | 0.00 | 62 | 1024.0 |
| 20260507003702 | 21 | 259 | 1.6 | 1.6 | 0.00 | 0.00 | 0.00 | 63 | 1023.8 |
| 20260507003157 | 22 | 152 | 0.0 | 0.0 | 0.00 | 0.00 | 0.00 | 61 | 1023.8 |
| 20260507002654 | 22 | 79 | 0.0 | 0.0 | 0.00 | 0.00 | 0.00 | 61 | 1023.8 |
| 20260507002149 | 21 | 111 | 0.0 | 0.0 | 0.00 | 0.00 | 0.00 | 63 | 1023.8 |
| 20260507001647 | 21 | 109 | 0.0 | 0.0 | 0.00 | 0.00 | 0.00 | 63 | 1023.7 |
| 20260507001144 | 21 | 128 | 0.0 | 0.0 | 0.00 | 0.00 | 0.00 | 64 | 1023.9 |
| 20260507000640 | 21 | 63 | 1.6 | 1.6 | 0.00 | 0.00 | 0.00 | 63 | 1023.9 |
| 20260507000135 | 21 | 111 | 0.0 | 0.0 | 0.00 | 0.00 | 0.00 | 63 | 1023.6 |
| 20260506235633 | 21 | 104 | 0.0 | 0.0 | 0.00 | 0.00 | 0.00 | 65 | 1023.9 |
| 20260506235133 | 21 | 119 | 0.0 | 0.0 | 0.00 | 0.00 | 0.00 | 65 | 1023.8 |
| 20260506234631 | 21 | 144 | 0.0 | 0.0 | 0.00 | 0.00 | 0.00 | 64 | 1023.8 |
| 20260506234128 | 21 | 158 | 0.0 | 0.0 | 0.00 | 0.00 | 0.00 | 66 | 1023.8 |
| 20260506233625 | 21 | 232 | 1.6 | 3.2 | 0.00 | 0.00 | 0.00 | 64 | 1023.8 |
| 20260506233122 | 21 | 77 | 1.6 | 1.6 | 0.00 | 0.00 | 0.00 | 63 | 1023.9 |
| 20260506232618 | 21 | 90 | 0.0 | 1.6 | 0.00 | 0.00 | 0.00 | 62 | 1023.9 |
| 20260506232114 | 21 | 92 | 0.0 | 0.0 | 0.00 | 0.00 | 0.00 | 62 | 1023.9 |
| 20260506231611 | 21 | 71 | 1.6 | 1.6 | 0.00 | 0.00 | 0.00 | 63 | 1024.0 |
| 20260506231109 | 21 | 39 | 1.6 | 1.6 | 0.00 | 0.00 | 0.00 | 63 | 1024.0 |
| 20260506230605 | 21 | 96 | 0.0 | 0.0 | 0.00 | 0.00 | 0.00 | 64 | 1024.1 |
| 20260506230103 | 21 | 47 | 0.0 | 0.0 | 0.00 | 0.00 | 0.00 | 63 | 1024.0 |
| 20260506225559 | 21 | 107 | 0.0 | 0.0 | 0.00 | 0.00 | 0.00 | 63 | 1024.3 |
| 20260506225055 | 21 | 113 | 0.0 | 0.0 | 0.00 | 0.00 | 0.00 | 63 | 1024.1 |
| 20260506224553 | 21 | 71 | 0.0 | 1.6 | 0.00 | 0.00 | 0.00 | 63 | 1024.4 |
| 20260506224049 | 21 | 104 | 0.0 | 0.0 | 0.00 | 0.00 | 0.00 | 63 | 1024.6 |
| 20260506223545 | 21 | 90 | 1.6 | 1.6 | 0.00 | 0.00 | 0.00 | 61 | 1024.4 |
| 20260506223042 | 22 | 51 | 1.6 | 1.6 | 0.00 | 0.00 | 0.00 | 61 | 1024.5 |
| 20260506222539 | 21 | 188 | 1.6 | 1.6 | 0.00 | 0.00 | 0.00 | 63 | 1024.6 |
| 20260506222035 | 21 | 223 | 1.6 | 3.2 | 0.00 | 0.00 | 0.00 | 60 | 1024.7 |
| 20260506221533 | 21 | 78 | 0.0 | 0.0 | 0.00 | 0.00 | 0.00 | 64 | 1024.5 |
| 20260506221030 | 20 | 118 | 0.0 | 0.0 | 0.00 | 0.00 | 0.00 | 64 | 1024.5 |
| 20260506220526 | 21 | 69 | 0.0 | 0.0 | 0.00 | 0.00 | 0.00 | 63 | 1024.4 |
| 20260506220022 | 21 | 98 | 0.0 | 0.0 | 0.00 | 0.00 | 0.00 | 65 | 1024.5 |
| 20260506215519 | 20 | 62 | 0.0 | 0.0 | 0.00 | 0.00 | 0.00 | 67 | 1024.6 |
| 20260506215015 | 20 | 55 | 0.0 | 1.6 | 0.00 | 0.00 | 0.00 | 65 | 1024.5 |
| 20260506214512 | 20 | 100 | 0.0 | 0.0 | 0.00 | 0.00 | 0.00 | 67 | 1024.6 |
| 20260506214009 | 20 | 88 | 0.0 | 0.0 | 0.00 | 0.00 | 0.00 | 67 | 1024.5 |
| 20260506213507 | 20 | 89 | 0.0 | 0.0 | 0.00 | 0.00 | 0.00 | 65 | 1024.7 |
| 20260506213004 | 20 | 101 | 0.0 | 0.0 | 0.00 | 0.00 | 0.00 | 67 | 1024.8 |
| 20260506212500 | 20 | 248 | 0.0 | 1.6 | 0.00 | 0.00 | 0.00 | 66 | 1024.9 |
| 20260506211954 | 20 | 84 | 0.0 | 0.0 | 0.00 | 0.00 | 0.00 | 67 | 1024.9 |
| 20260506211451 | 20 | 90 | 0.0 | 0.0 | 0.00 | 0.00 | 0.00 | 67 | 1025.0 |
| 20260506210948 | 20 | 53 | 0.0 | 1.6 | 0.00 | 0.00 | 0.00 | 67 | 1025.0 |
| 20260506210444 | 20 | 91 | 0.0 | 1.6 | 0.00 | 0.00 | 0.00 | 67 | 1025.1 |
| 20260506205942 | 20 | 59 | 1.6 | 1.6 | 0.00 | 0.00 | 0.00 | 68 | 1025.1 |
| 20260506205438 | 20 | 77 | 0.0 | 1.6 | 0.00 | 0.00 | 0.00 | 67 | 1024.8 |
| 20260506204934 | 19 | 133 | 1.6 | 3.2 | 0.00 | 0.00 | 0.00 | 70 | 1024.9 |
| 20260506204432 | 20 | 72 | 0.0 | 0.0 | 0.00 | 0.00 | 0.00 | 69 | 1025.0 |
| 20260506203929 | 20 | 137 | 3.2 | 8.0 | 0.00 | 0.00 | 0.00 | 67 | 1024.8 |
| 20260506203426 | 20 | 114 | 0.0 | 0.0 | 0.00 | 0.00 | 0.00 | 68 | 1024.8 |
| 20260506202923 | 20 | 37 | 0.0 | 1.6 | 0.00 | 0.00 | 0.00 | 68 | 1025.1 |
| 20260506202420 | 19 | 63 | 0.0 | 0.0 | 0.00 | 0.00 | 0.00 | 69 | 1025.0 |
| 20260506201917 | 18 | 86 | 0.0 | 0.0 | 0.00 | 0.00 | 0.00 | 72 | 1025.0 |
| 20260506201414 | 18 | 33 | 1.6 | 1.6 | 0.00 | 0.00 | 0.00 | 74 | 1025.1 |
| 20260506200911 | 17 | 184 | 1.6 | 1.6 | 0.00 | 0.00 | 0.00 | 73 | 1025.4 |
| 20260506200407 | 17 | 79 | 1.6 | 1.6 | 0.00 | 0.00 | 0.00 | 74 | 1025.4 |
| 20260506195904 | 17 | 144 | 1.6 | 1.6 | 0.00 | 0.00 | 0.00 | 75 | 1025.7 |
| 20260506195401 | 17 | 75 | 0.0 | 0.0 | 0.00 | 0.00 | 0.00 | 75 | 1025.7 |
| 20260506194857 | 17 | 71 | 1.6 | 1.6 | 0.00 | 0.00 | 0.00 | 75 | 1025.7 |
| 20260506194354 | 17 | 238 | 3.2 | 3.2 | 0.00 | 0.00 | 0.00 | 74 | 1025.4 |
| 20260506193852 | 17 | 105 | 0.0 | 0.0 | 0.00 | 0.00 | 0.00 | 75 | 1025.7 |
| 20260506193348 | 17 | 60 | 0.0 | 0.0 | 0.00 | 0.00 | 0.00 | 75 | 1025.6 |
| 20260506192844 | 17 | 135 | 0.0 | 0.0 | 0.00 | 0.00 | 0.00 | 75 | 1025.7 |
| 20260506192341 | 17 | 136 | 0.0 | 0.0 | 0.00 | 0.00 | 0.00 | 76 | 1025.3 |
| 20260506191838 | 17 | 268 | 0.0 | 0.0 | 0.00 | 0.00 | 0.00 | 75 | 1025.4 |
| 20260506191335 | 17 | 79 | 0.0 | 1.6 | 0.00 | 0.00 | 0.00 | 76 | 1025.6 |
| 20260506190832 | 17 | 45 | 1.6 | 1.6 | 0.00 | 0.00 | 0.00 | 76 | 1025.6 |
| 20260506190328 | 17 | 151 | 0.0 | 1.6 | 0.00 | 0.00 | 0.00 | 75 | 1025.2 |
| 20260506185825 | 17 | 94 | 1.6 | 1.6 | 0.00 | 0.00 | 0.00 | 74 | 1025.3 |
| 20260506185322 | 17 | 30 | 1.6 | 1.6 | 0.00 | 0.00 | 0.00 | 74 | 1025.3 |
| 20260506184819 | 17 | 55 | 1.6 | 1.6 | 0.00 | 0.00 | 0.00 | 73 | 1025.0 |
| 20260506184316 | 17 | 103 | 0.0 | 1.6 | 0.00 | 0.00 | 0.00 | 75 | 1025.0 |
| 20260506183814 | 16 | 144 | 0.0 | 0.0 | 0.00 | 0.00 | 0.00 | 76 | 1025.3 |
| 20260506183309 | 16 | 102 | 0.0 | 0.0 | 0.00 | 0.00 | 0.00 | 77 | 1025.2 |
| 20260506182806 | 16 | 227 | 0.0 | 0.0 | 0.00 | 0.00 | 0.00 | 77 | 1025.2 |
| 20260506182306 | 16 | 37 | 1.6 | 1.6 | 0.00 | 0.00 | 0.00 | 78 | 1025.4 |
| 20260506181801 | 16 | 75 | 1.6 | 1.6 | 0.00 | 0.00 | 0.00 | 77 | 1025.6 |
| 20260506181259 | 16 | 91 | 0.0 | 1.6 | 0.00 | 0.00 | 0.00 | 78 | 1025.3 |
| 20260506180756 | 16 | 140 | 0.0 | 0.0 | 0.00 | 0.00 | 0.00 | 78 | 1025.6 |
| 20260506180251 | 16 | 139 | 0.0 | 0.0 | 0.00 | 0.00 | 0.00 | 79 | 1025.6 |
| 20260506175748 | 16 | 47 | 0.0 | 0.0 | 0.00 | 0.00 | 0.00 | 78 | 1025.2 |
| 20260506175245 | 16 | 43 | 0.0 | 0.0 | 0.00 | 0.00 | 0.00 | 78 | 1025.6 |
| 20260506174742 | 16 | 118 | 0.0 | 0.0 | 0.00 | 0.00 | 0.00 | 78 | 1025.4 |
| 20260506174239 | 16 | 141 | 0.0 | 0.0 | 0.00 | 0.00 | 0.00 | 78 | 1025.4 |
| 20260506173737 | 16 | 67 | 0.0 | 1.6 | 0.00 | 0.00 | 0.00 | 77 | 1025.3 |
| 20260506173233 | 16 | 107 | 0.0 | 0.0 | 0.00 | 0.00 | 0.00 | 79 | 1025.3 |
| 20260506172730 | 15 | 257 | 1.6 | 1.6 | 0.00 | 0.00 | 0.00 | 79 | 1025.3 |
| 20260506172227 | 15 | 55 | 1.6 | 1.6 | 0.00 | 0.00 | 0.00 | 79 | 1025.1 |
| 20260506171725 | 15 | 83 | 0.0 | 0.0 | 0.00 | 0.00 | 0.00 | 80 | 1025.7 |
| 20260506171222 | 15 | 72 | 1.6 | 1.6 | 0.00 | 0.00 | 0.00 | 80 | 1025.2 |
| 20260506170719 | 15 | 122 | 0.0 | 0.0 | 0.00 | 0.00 | 0.00 | 81 | 1025.1 |
| 20260506170216 | 15 | 111 | 0.0 | 0.0 | 0.00 | 0.00 | 0.00 | 81 | 1025.1 |
| 20260506165714 | 15 | 232 | 1.6 | 1.6 | 0.00 | 0.00 | 0.00 | 81 | 1025.6 |
| 20260506165211 | 15 | 72 | 0.0 | 1.6 | 0.00 | 0.00 | 0.00 | 80 | 1025.3 |
| 20260506164708 | 15 | 83 | 0.0 | 1.6 | 0.00 | 0.00 | 0.00 | 81 | 1025.3 |
| 20260506164205 | 15 | 175 | 0.0 | 0.0 | 0.00 | 0.00 | 0.00 | 81 | 1025.4 |
| 20260506163701 | 15 | 69 | 0.0 | 0.0 | 0.00 | 0.00 | 0.00 | 81 | 1025.3 |
| 20260506163156 | 14 | 166 | 0.0 | 0.0 | 0.00 | 0.00 | 0.00 | 82 | 1025.3 |
| 20260506162653 | 14 | 145 | 0.0 | 0.0 | 0.00 | 0.00 | 0.00 | 82 | 1025.2 |
| 20260506162150 | 15 | 148 | 0.0 | 1.6 | 0.00 | 0.00 | 0.00 | 81 | 1025.0 |
| 20260506161648 | 14 | 60 | 0.0 | 0.0 | 0.00 | 0.00 | 0.00 | 83 | 1024.9 |
| 20260506161144 | 15 | 155 | 0.0 | 0.0 | 0.00 | 0.00 | 0.00 | 82 | 1025.1 |
| 20260506160642 | 15 | 67 | 1.6 | 1.6 | 0.00 | 0.00 | 0.00 | 81 | 1025.0 |
| 20260506160139 | 15 | 229 | 3.2 | 3.2 | 0.00 | 0.00 | 0.00 | 82 | 1024.9 |
| 20260506155637 | 15 | 93 | 0.0 | 0.0 | 0.00 | 0.00 | 0.00 | 82 | 1024.9 |
| 20260506155134 | 13 | 98 | 0.0 | 0.0 | 0.00 | 0.00 | 0.00 | 84 | 1024.7 |
| 20260506153236 | 13 | 64 | 0.0 | 0.0 | 0.00 | 0.00 | 0.00 | 85 | 1024.9 |
| 20260506152733 | 13 | 114 | 0.0 | 0.0 | 0.00 | 0.00 | 0.00 | 86 | 1025.0 |
| 20260506152230 | 13 | 195 | 0.0 | 0.0 | 0.00 | 0.00 | 0.00 | 86 | 1025.3 |
| 20260506151729 | 13 | 105 | 0.0 | 0.0 | 0.00 | 0.00 | 0.00 | 86 | 1025.3 |
| 20260506151225 | 13 | 131 | 0.0 | 0.0 | 0.00 | 0.00 | 0.00 | 87 | 1025.3 |
| 20260506150722 | 13 | 163 | 0.0 | 0.0 | 0.00 | 0.00 | 0.00 | 87 | 1025.3 |
| 20260506150219 | 13 | 100 | 0.0 | 0.0 | 0.00 | 0.00 | 0.00 | 87 | 1025.1 |
| 20260506145716 | 13 | 233 | 0.0 | 0.0 | 0.00 | 0.00 | 0.00 | 87 | 1025.2 |
| 20260506145213 | 13 | 113 | 0.0 | 0.0 | 0.00 | 0.00 | 0.00 | 87 | 1025.3 |
| 20260506144710 | 13 | 118 | 0.0 | 0.0 | 0.00 | 0.00 | 0.00 | 87 | 1025.0 |
| 20260506144207 | 13 | 161 | 0.0 | 0.0 | 0.00 | 0.00 | 0.00 | 87 | 1025.1 |
| 20260506143704 | 13 | 161 | 0.0 | 0.0 | 0.00 | 0.00 | 0.00 | 88 | 1025.0 |
| 20260506143202 | 13 | 177 | 0.0 | 0.0 | 0.00 | 0.00 | 0.00 | 88 | 1024.8 |
| 20260506142701 | 13 | 222 | 0.0 | 0.0 | 0.00 | 0.00 | 0.00 | 87 | 1024.5 |
| 20260506142158 | 13 | 54 | 0.0 | 0.0 | 0.00 | 0.00 | 0.00 | 87 | 1024.3 |
| 20260506141656 | 13 | 70 | 0.0 | 0.0 | 0.00 | 0.00 | 0.00 | 87 | 1024.4 |
| 20260506141154 | 13 | 69 | 0.0 | 0.0 | 0.00 | 0.00 | 0.00 | 87 | 1024.1 |
| 20260506140651 | 13 | 87 | 0.0 | 0.0 | 0.00 | 0.00 | 0.00 | 88 | 1024.0 |
| 20260506140148 | 13 | 89 | 0.0 | 0.0 | 0.00 | 0.00 | 0.00 | 88 | 1024.2 |
| 20260506135645 | 13 | 76 | 0.0 | 0.0 | 0.00 | 0.00 | 0.00 | 88 | 1024.2 |
| 20260506135141 | 13 | 86 | 0.0 | 0.0 | 0.00 | 0.00 | 0.00 | 89 | 1024.0 |
| 20260506134638 | 13 | 70 | 0.0 | 0.0 | 0.00 | 0.00 | 0.00 | 89 | 1024.1 |
| 20260506134133 | 13 | 95 | 0.0 | 0.0 | 0.00 | 0.00 | 0.00 | 89 | 1024.2 |
| 20260506133631 | 13 | 72 | 0.0 | 0.0 | 0.00 | 0.00 | 0.00 | 88 | 1024.0 |
| 20260506133128 | 13 | 77 | 0.0 | 0.0 | 0.00 | 0.00 | 0.00 | 88 | 1023.9 |
| 20260506132625 | 13 | 78 | 0.0 | 0.0 | 0.00 | 0.00 | 0.00 | 88 | 1024.1 |
| 20260506132122 | 13 | 80 | 0.0 | 0.0 | 0.00 | 0.00 | 0.00 | 88 | 1023.9 |
| 20260506131620 | 13 | 92 | 0.0 | 0.0 | 0.00 | 0.00 | 0.00 | 88 | 1023.8 |
| 20260506131115 | 13 | 102 | 0.0 | 0.0 | 0.00 | 0.00 | 0.00 | 88 | 1024.0 |
| 20260506130613 | 13 | 96 | 0.0 | 0.0 | 0.00 | 0.00 | 0.00 | 88 | 1023.7 |
| 20260506130110 | 13 | 77 | 0.0 | 0.0 | 0.00 | 0.00 | 0.00 | 88 | 1023.8 |
| 20260506125608 | 13 | 109 | 0.0 | 0.0 | 0.00 | 0.00 | 0.00 | 88 | 1023.9 |
| 20260506125106 | 13 | 95 | 0.0 | 0.0 | 0.00 | 0.00 | 0.00 | 88 | 1023.8 |
| 20260506124603 | 13 | 94 | 0.0 | 0.0 | 0.00 | 0.00 | 0.00 | 88 | 1023.7 |
| 20260506124101 | 13 | 94 | 0.0 | 0.0 | 0.00 | 0.00 | 0.00 | 88 | 1023.7 |
| 20260506123558 | 13 | 96 | 0.0 | 0.0 | 0.00 | 0.00 | 0.00 | 88 | 1023.8 |
| 20260506123057 | 13 | 103 | 0.0 | 0.0 | 0.00 | 0.00 | 0.00 | 88 | 1023.6 |
| 20260506122553 | 13 | 96 | 0.0 | 0.0 | 0.00 | 0.00 | 0.00 | 89 | 1023.8 |
| 20260506122051 | 13 | 129 | 0.0 | 0.0 | 0.00 | 0.00 | 0.00 | 89 | 1023.9 |
| 20260506121548 | 13 | 96 | 0.0 | 0.0 | 0.00 | 0.00 | 0.00 | 88 | 1023.7 |
| 20260506121044 | 13 | 86 | 0.0 | 0.0 | 0.00 | 0.00 | 0.00 | 88 | 1023.6 |
| 20260506120543 | 13 | 86 | 0.0 | 0.0 | 0.00 | 0.00 | 0.00 | 88 | 1023.7 |
| 20260506120040 | 13 | 102 | 0.0 | 0.0 | 0.00 | 0.00 | 0.00 | 88 | 1023.6 |
| 20260506115538 | 13 | 92 | 0.0 | 0.0 | 0.00 | 0.00 | 0.00 | 88 | 1023.5 |
| 20260506115036 | 13 | 82 | 0.0 | 0.0 | 0.00 | 0.00 | 0.00 | 88 | 1023.5 |
| 20260506114533 | 13 | 134 | 0.0 | 0.0 | 0.00 | 0.00 | 0.00 | 88 | 1023.5 |
| 20260506114031 | 13 | 98 | 0.0 | 0.0 | 0.00 | 0.00 | 0.00 | 88 | 1023.4 |
| 20260506113529 | 13 | 94 | 0.0 | 0.0 | 0.00 | 0.00 | 0.00 | 88 | 1023.2 |
| 20260506113026 | 13 | 84 | 0.0 | 0.0 | 0.00 | 0.00 | 0.00 | 88 | 1023.4 |
| 20260506112522 | 13 | 94 | 0.0 | 0.0 | 0.00 | 0.00 | 0.00 | 87 | 1023.2 |
| 20260506112020 | 13 | 97 | 0.0 | 0.0 | 0.00 | 0.00 | 0.00 | 87 | 1023.3 |
| 20260506111518 | 13 | 96 | 0.0 | 0.0 | 0.00 | 0.00 | 0.00 | 87 | 1023.2 |
| 20260506111015 | 13 | 95 | 0.0 | 0.0 | 0.00 | 0.00 | 0.00 | 88 | 1022.8 |
| 20260506110512 | 13 | 140 | 0.0 | 0.0 | 0.00 | 0.00 | 0.00 | 89 | 1023.2 |
| 20260506110009 | 13 | 140 | 0.0 | 0.0 | 0.00 | 0.00 | 0.00 | 89 | 1023.0 |
| 20260506105505 | 13 | 140 | 0.0 | 0.0 | 0.00 | 0.00 | 0.00 | 88 | 1022.8 |
| 20260506105003 | 14 | 140 | 0.0 | 0.0 | 0.00 | 0.00 | 0.00 | 88 | 1022.8 |
| 20260506104501 | 13 | 140 | 0.0 | 0.0 | 0.00 | 0.00 | 0.00 | 88 | 1022.6 |
| 20260506103958 | 13 | 139 | 0.0 | 0.0 | 0.00 | 0.00 | 0.00 | 88 | 1022.5 |
| 20260506103455 | 13 | 131 | 0.0 | 0.0 | 0.00 | 0.00 | 0.00 | 87 | 1022.4 |
| 20260506102952 | 14 | 141 | 0.0 | 0.0 | 0.00 | 0.00 | 0.00 | 88 | 1022.4 |
| 20260506102450 | 14 | 137 | 0.0 | 0.0 | 0.00 | 0.00 | 0.00 | 88 | 1022.3 |
| 20260506101947 | 14 | 142 | 0.0 | 0.0 | 0.00 | 0.00 | 0.00 | 88 | 1022.4 |
| 20260506101444 | 14 | 113 | 0.0 | 0.0 | 0.00 | 0.00 | 0.00 | 88 | 1022.4 |
| 20260506100941 | 14 | 87 | 0.0 | 0.0 | 0.00 | 0.00 | 0.00 | 87 | 1022.3 |
| 20260506100439 | 14 | 75 | 0.0 | 0.0 | 0.00 | 0.00 | 0.00 | 87 | 1022.3 |
| 20260506095937 | 14 | 144 | 0.0 | 0.0 | 0.00 | 0.00 | 0.00 | 88 | 1022.3 |
| 20260506095435 | 14 | 145 | 0.0 | 0.0 | 0.00 | 0.00 | 0.00 | 87 | 1022.2 |
| 20260506094931 | 14 | 137 | 0.0 | 0.0 | 0.00 | 0.00 | 0.00 | 87 | 1022.0 |
| 20260506094430 | 14 | 120 | 0.0 | 0.0 | 0.00 | 0.00 | 0.00 | 87 | 1022.0 |
| 20260506093927 | 14 | 115 | 0.0 | 0.0 | 0.00 | 0.00 | 0.00 | 87 | 1022.0 |
| 20260506093425 | 15 | 115 | 0.0 | 0.0 | 0.00 | 0.00 | 0.00 | 88 | 1021.9 |
| 20260506092922 | 15 | 107 | 0.0 | 0.0 | 0.00 | 0.00 | 0.00 | 87 | 1022.1 |
| 20260506092420 | 15 | 106 | 0.0 | 0.0 | 0.00 | 0.00 | 0.00 | 86 | 1022.0 |
| 20260506091916 | 15 | 121 | 0.0 | 0.0 | 0.00 | 0.00 | 0.00 | 87 | 1022.0 |
| 20260506091415 | 15 | 121 | 0.0 | 0.0 | 0.00 | 0.00 | 0.00 | 87 | 1022.0 |
| 20260506090911 | 14 | 133 | 0.0 | 0.0 | 0.00 | 0.00 | 0.00 | 87 | 1022.0 |
| 20260506090409 | 15 | 133 | 0.0 | 0.0 | 0.00 | 0.00 | 0.00 | 88 | 1021.9 |
| 20260506085906 | 15 | 133 | 0.0 | 0.0 | 0.00 | 0.00 | 0.00 | 87 | 1021.9 |
| 20260506085402 | 15 | 100 | 0.0 | 0.0 | 0.00 | 0.00 | 0.00 | 87 | 1021.7 |
| 20260506084858 | 15 | 93 | 0.0 | 0.0 | 0.00 | 0.00 | 0.00 | 88 | 1022.0 |
| 20260506084355 | 15 | 139 | 0.0 | 0.0 | 0.00 | 0.00 | 0.00 | 88 | 1021.9 |
| 20260506083852 | 15 | 112 | 0.0 | 0.0 | 0.00 | 0.00 | 0.00 | 87 | 1022.1 |
| 20260506083350 | 15 | 113 | 0.0 | 0.0 | 0.00 | 0.00 | 0.00 | 87 | 1021.7 |
| 20260506082847 | 15 | 96 | 0.0 | 0.0 | 0.00 | 0.00 | 0.00 | 87 | 1021.8 |
| 20260506082344 | 15 | 138 | 0.0 | 0.0 | 0.00 | 0.00 | 0.00 | 87 | 1021.9 |
| 20260506081839 | 15 | 138 | 0.0 | 0.0 | 0.00 | 0.00 | 0.00 | 87 | 1021.8 |
| 20260506081338 | 15 | 139 | 0.0 | 0.0 | 0.00 | 0.00 | 0.00 | 87 | 1021.7 |
| 20260506080835 | 15 | 138 | 0.0 | 0.0 | 0.00 | 0.00 | 0.00 | 87 | 1021.8 |
| 20260506080331 | 15 | 134 | 0.0 | 0.0 | 0.00 | 0.00 | 0.00 | 87 | 1021.6 |
| 20260506073316 | 15 | 133 | 0.0 | 0.0 | 0.00 | 0.00 | 0.00 | 87 | 1021.5 |
| 20260506072812 | 15 | 133 | 0.0 | 0.0 | 0.00 | 0.00 | 0.00 | 86 | 1021.5 |
| 20260506072310 | 15 | 134 | 0.0 | 0.0 | 0.00 | 0.00 | 0.00 | 86 | 1021.4 |
| 20260506071807 | 15 | 84 | 0.0 | 0.0 | 0.00 | 0.00 | 0.00 | 85 | 1021.5 |
| 20260506071306 | 15 | 79 | 0.0 | 0.0 | 0.00 | 0.00 | 0.00 | 86 | 1021.5 |
| 20260506070802 | 15 | 144 | 0.0 | 0.0 | 0.00 | 0.00 | 0.00 | 85 | 1021.4 |
| 20260506070259 | 15 | 144 | 0.0 | 0.0 | 0.00 | 0.00 | 0.00 | 85 | 1021.6 |